Home > Weather > Paris > Past weeks

Flag for France Weather for the Past 2 Weeks in Paris, France

Now
48 °F

Partly sunny.


Feels Like: 41 °F
Forecast: 40 / 52 °F
Wind: 21 mph from West

Location: Villacoublay

Current Time: Feb 8, 2016 at 2:12:52 PM

Latest Report: Feb 8, 2016 at 1:30 PM


Visibility: N/A

Pressure: 29.53 "Hg

Humidity: 76%

Dew point: 41 °F

Location of ParisLocation

Historic Weather in Paris — Graph

°F

Paris Temperature Yesterday

Maximum temperature yesterday: 54 °F (at 12:00 AM)
Minimum temperature yesterday: 43 °F (at 7:00 AM)
Average temperature yesterday: 47 °F

High & Low Weather Summary for the Past Weeks

 TemperatureHumidityPressure
High55 °F (Jan 25, 2:30 PM)100% (Jan 24, 1:30 PM)30.48 "Hg (Jan 24, 1:30 PM)
Low36 °F (Jan 28, 10:30 PM)51% (Feb 6, 5:00 PM)29.42 "Hg (Feb 7, 2:00 AM)
Average47 °F86%30.13 "Hg
* Reported Jan 24 1:00 PM — Feb 8 1:00 PM, Paris, Weather by CustomWeather, © 2016

Note: Actual official high and low records may vary slightly from our data, if they occured in-between our weather recording intervals... More about our weather records

Advertising

Paris Weather History for the Previous 24 Hours

 ConditionsComfort  
Time TempWeatherWind HumidityBarometerVisibility
1:00 PM
Mon, Feb 8
50 °FBroken clouds.23 mph67%29.50 "HgN/A
12:30 PM50 °FMore clouds than sun.21 mph67%29.50 "HgN/A
12:00 PM48 °FBroken clouds.23 mph76%29.50 "HgN/A
11:30 AM50 °FMostly cloudy.21 mph71%29.47 "HgN/A
11:00 AM52 °FBroken clouds.20 mph67%29.47 "HgN/A
10:30 AM50 °FPartly sunny.20 mph67%29.47 "HgN/A
10:00 AM52 °FBroken clouds.22 mph62%29.45 "HgN/A
9:30 AM50 °FPartly sunny.21 mph76%29.45 "HgN/A
9:00 AM50 °FPartly sunny.18 mph76%29.45 "HgN/A
8:30 AM50 °FPartly sunny.20 mph76%29.45 "HgN/A
8:00 AM50 °FPassing clouds.17 mph76%29.45 "HgN/A
7:30 AM52 °FPassing clouds.17 mph72%29.45 "HgN/A
7:00 AM52 °FPassing clouds.21 mph72%29.45 "HgN/A
6:30 AM52 °FPassing clouds.23 mph77%29.45 "HgN/A
6:00 AM52 °FPartly cloudy.21 mph82%29.45 "HgN/A
5:30 AM52 °FMostly cloudy.22 mph82%29.45 "HgN/A
5:00 AM50 °FOvercast.23 mph94%29.45 "HgN/A
4:30 AM50 °FMostly cloudy.22 mph88%29.45 "HgN/A
4:00 AM50 °FOvercast.22 mph88%29.47 "HgN/A
3:30 AM48 °FLow clouds.20 mph94%29.47 "HgN/A
3:00 AM46 °FDrizzle. Low clouds.18 mph100%29.50 "Hg4 mi
2:00 AM46 °FLow clouds.18 mph93%29.53 "Hg4 mi
1:30 AM46 °FDrizzle. Low clouds.21 mph93%29.56 "Hg5 mi
1:00 AM46 °FLight rain. Mostly cloudy.21 mph87%29.59 "HgN/A
12:30 AM46 °FOvercast.22 mph87%29.59 "HgN/A
12:00 AM46 °FOvercast.20 mph82%29.62 "HgN/A
11:30 PM
Sun, Feb 7
46 °FMostly cloudy.20 mph82%29.62 "HgN/A
11:00 PM45 °FPartly cloudy.17 mph87%29.65 "HgN/A
10:30 PM45 °FLight rain. Passing clouds.17 mph81%29.68 "HgN/A
10:00 PM45 °FPartly cloudy.17 mph81%29.68 "HgN/A
9:30 PM46 °FPassing clouds.17 mph71%29.71 "HgN/A
9:00 PM46 °FPassing clouds.15 mph71%29.68 "HgN/A
8:30 PM46 °FClear.16 mph71%29.71 "Hg10 mi
8:00 PM46 °FPassing clouds.13 mph71%29.71 "HgN/A
7:30 PM46 °FPassing clouds.14 mph71%29.71 "HgN/A
7:00 PM46 °FPartly cloudy.13 mph66%29.71 "HgN/A
6:30 PM46 °FPassing clouds.12 mph66%29.71 "HgN/A
6:00 PM46 °FPartly cloudy.12 mph66%29.71 "HgN/A
5:30 PM48 °FBroken clouds.12 mph66%29.71 "HgN/A
5:00 PM46 °FPartly sunny.9 mph71%29.71 "HgN/A
4:30 PM48 °FBroken clouds.14 mph62%29.71 "HgN/A
4:00 PM50 °FMore clouds than sun.17 mph58%29.68 "HgN/A
3:30 PM48 °FPartly sunny.16 mph58%29.68 "HgN/A
3:00 PM48 °FBroken clouds.13 mph58%29.68 "HgN/A
2:30 PM48 °FPartly sunny.16 mph62%29.68 "HgN/A
2:00 PM48 °FScattered clouds.17 mph62%29.68 "HgN/A
Weather by CustomWeather, © 2016

See weather overviewHow to use our weather pages